PROBA-3 OSC (62258 NORAD) Tracking and Keplerian Element Data

This shows tracking and keplerian element data for the satellite.

Feedback or suggestion? Click here.




ElementValue
Catalog62258
NamePROBA-3 OSC
Epoch Orbit67
Epoch Day30.44447575
Epoch Year2025
RAAN141.332
Inclination59.2463
Eccentricity0.809968
Argument of Perigee190.0461
Mean Anonmoly126.5343
Mean Motion1.22069487
Decay Rate-1.3E-06
L11 62258U 24233C 25030.44447575 -.00000130 00000+0 11019-1 0 9994
L22 62258 59.2463 141.3320 8099680 190.0461 126.5343 1.22069487 675



Live tracking and technical data element details for PROBA-3 OSC (NORAD 62258). PROBA-3 OSC can be tracked NOW for your location showing map with azimuth and elevation plus other details from your city location.







IsCatalogInMostPopularTable: catalog: 62258, numindb: 18
Update: records affected: 1



GetName: 62258 PROBA-3 OSC

Hit Count: updated at: Mon, 19 May 2025 02:26:35 GMT